Theta_e
314 314 314 314 314 313 312 310 309 310 311 311 313 313 314 317 320 319 318 318 317 318 319 320 319 318 317 316 316 315 314 315 316 317 315 313 309 305 303 302 301 300 299 298 296 295 294 294 294 294 294 294 294 294 295 295 295 295 295 295 296 296 295 294 291 289 288 288 288 288 288 288 287 287 287 287 287 287 287 287 287 287 287 287 287
315 315 314 314 314 313 312 311 310 309 310 310 311 312 313 316 319 319 318 318 317 316 318 319 319 317 316 316 315 315 314 315 315 316 314 311 308 304 301 300 300 299 298 297 296 295 294 294 294 294 294 294 294 294 295 295 295 295 296 297 297 296 296 294 291 289 289 288 288 288 288 288 287 287 287 287 287 287 287 287 287 288 288 288 288
315 315 315 314 314 313 312 311 310 309 309 309 309 310 312 314 316 317 318 318 317 316 317 319 319 317 316 315 315 314 314 315 315 314 312 310 307 302 300 299 298 298 297 296 295 294 294 294 294 294 294 294 294 295 295 295 295 296 297 297 297 296 295 293 290 289 289 288 288 288 288 288 288 288 288 288 288 288 288 288 288 288 288 288 288
315 314 315 315 314 313 312 312 310 310 310 309 308 309 311 314 314 315 316 318 317 316 316 318 318 317 316 315 314 313 312 314 314 313 312 310 306 301 298 298 297 297 297 296 295 294 294 294 294 294 294 294 295 295 295 295 296 297 297 297 297 296 295 292 289 289 288 288 288 288 288 288 288 288 288 288 288 288 288 288 288 288 288 288 288
316 314 314 315 314 313 313 312 311 310 310 310 309 308 310 313 314 314 315 316 317 317 317 318 318 317 315 314 314 312 312 313 313 313 312 310 306 301 297 297 296 296 296 295 294 294 294 294 294 294 294 295 295 295 295 295 297 297 297 297 296 295 294 291 289 288 288 289 288 288 288 288 288 288 288 288 288 288 288 288 288 288 288 288 288
317 315 314 315 315 314 313 313 312 311 310 310 309 309 310 311 313 314 314 315 316 317 317 318 318 317 315 314 313 312 311 312 312 313 312 310 305 300 297 296 296 295 295 294 294 294 294 294 294 295 295 295 295 295 295 296 297 297 297 296 295 295 294 291 289 288 288 289 288 288 288 288 288 288 288 288 288 288 288 288 288 288 288 288 287
318 317 315 314 315 315 314 313 312 311 310 310 310 309 309 309 310 311 312 313 315 316 317 318 318 317 315 313 312 312 311 311 311 313 312 309 304 300 297 296 295 294 294 294 293 293 293 294 294 295 295 295 295 295 295 296 297 297 297 296 295 295 294 292 290 289 289 289 288 288 288 288 288 288 288 288 288 288 288 288 288 288 287 287 287
318 317 316 315 315 316 315 313 312 311 310 310 310 310 310 309 309 310 310 312 314 315 317 317 317 316 315 313 312 312 311 311 311 312 311 308 304 299 296 295 294 294 293 293 293 293 293 294 294 294 295 295 295 294 295 296 296 297 296 295 295 294 294 293 292 291 291 290 289 288 289 288 288 288 288 288 288 288 288 288 288 288 287 287 287
318 317 317 316 316 316 315 313 312 311 310 310 310 310 310 309 310 310 311 312 314 315 317 317 317 316 314 312 312 312 311 311 311 311 311 308 302 296 295 295 294 293 293 293 293 293 293 294 294 294 294 294 294 294 295 296 296 296 296 295 295 294 293 293 293 292 292 291 290 289 289 289 289 289 288 288 288 288 287 287 287 287 287 287 287
318 317 317 317 316 315 314 313 312 311 311 310 310 310 310 310 310 311 312 312 313 315 316 316 316 314 313 312 312 312 311 310 310 310 310 309 304 297 295 295 294 293 293 293 293 293 293 293 294 294 294 293 293 294 295 295 296 296 295 295 294 294 293 293 292 292 292 291 291 290 289 290 290 290 289 288 288 287 287 287 287 287 287 287 287
317 317 317 317 316 315 314 313 313 312 311 310 310 310 310 310 310 310 311 312 313 314 315 315 315 313 312 312 312 312 311 310 310 309 310 309 304 298 295 295 294 293 293 293 293 293 293 294 294 294 293 293 293 293 294 295 295 296 295 294 294 293 293 293 292 292 291 291 291 290 290 290 291 290 290 289 288 287 287 287 287 287 287 287 287
316 317 317 317 316 316 315 313 313 312 311 311 310 310 310 311 310 310 310 311 312 313 314 315 314 312 312 311 311 312 311 309 309 309 309 308 303 297 295 295 294 293 293 293 293 293 293 294 294 293 293 292 292 293 294 294 295 295 295 294 294 293 293 292 292 292 291 291 291 291 290 290 290 290 290 290 289 288 287 287 287 287 287 287 287
316 316 317 316 316 316 315 314 313 313 312 311 310 310 310 311 311 310 310 312 313 314 314 314 313 312 311 311 311 311 310 309 309 308 309 307 301 296 294 295 294 294 293 293 293 293 293 293 293 293 292 292 292 293 294 294 294 295 295 294 293 293 293 292 292 292 291 291 291 290 290 290 290 289 289 288 288 287 287 286 286 286 286 286 287
315 315 316 316 316 316 315 314 313 312 312 310 310 309 310 310 311 311 311 312 313 314 314 314 313 312 311 311 310 310 310 309 309 308 308 304 299 294 294 294 294 293 293 293 293 292 293 293 293 293 292 292 292 293 293 294 294 295 295 294 294 293 293 292 292 292 291 291 291 290 290 290 289 289 288 287 286 286 286 285 285 285 285 285 286
313 314 315 316 315 315 315 315 313 312 311 310 309 309 309 310 311 311 311 311 312 313 314 313 312 311 311 310 310 310 310 309 308 308 305 301 296 293 293 293 293 293 292 292 292 292 292 292 292 292 291 292 292 292 293 294 294 295 295 295 294 293 293 292 292 292 291 291 291 290 290 289 289 288 287 286 286 285 285 284 284 284 284 285 285
312 313 314 315 315 315 315 315 314 312 311 311 310 309 309 310 311 311 311 311 312 313 313 313 312 311 311 310 310 310 310 309 308 307 304 298 293 292 293 293 293 292 292 291 291 291 291 291 291 291 291 291 291 292 294 294 293 294 294 294 294 293 292 292 292 291 291 291 290 290 290 290 289 288 287 286 285 284 284 284 283 283 284 284 284
313 312 313 314 314 314 314 314 313 312 310 310 310 309 308 309 310 311 311 311 312 313 313 313 312 312 311 311 310 309 309 308 308 307 302 296 292 292 292 292 292 292 291 291 291 290 290 290 290 290 290 291 292 294 295 293 292 292 293 293 293 292 292 291 291 290 290 290 289 289 289 288 288 287 287 285 285 284 283 283 283 283 283 283 283
313 313 312 312 313 313 313 313 312 311 310 310 310 309 308 307 309 311 311 311 311 312 313 312 312 312 311 310 309 308 308 307 307 306 301 295 291 291 291 291 291 291 290 290 290 290 290 289 289 290 291 292 294 295 294 292 291 292 292 291 291 291 291 290 289 289 289 288 288 287 287 287 286 286 285 284 283 283 283 283 282 282 282 282 282
313 313 312 312 311 311 312 312 311 310 309 309 308 308 307 306 306 308 310 311 311 311 312 312 312 311 310 309 308 307 307 307 306 305 301 294 290 290 291 291 291 290 290 290 290 289 289 289 289 291 292 293 295 295 293 290 290 291 290 290 289 289 289 288 287 287 287 286 286 285 285 285 285 285 284 283 282 281 282 282 282 281 281 281 281
313 312 311 310 309 309 309 310 310 309 308 307 306 306 305 304 304 305 308 309 310 310 311 311 311 310 308 307 306 306 306 306 305 303 299 293 290 290 290 290 290 290 290 290 290 289 289 289 290 292 293 294 295 294 292 289 289 289 289 288 288 288 288 287 286 285 285 285 285 285 285 285 284 284 284 283 282 281 281 281 281 281 281 281 281
311 310 310 309 308 308 308 308 308 307 306 305 305 304 304 303 303 303 305 307 309 309 310 310 308 307 305 305 305 304 304 303 303 301 298 292 290 290 290 290 290 290 290 290 290 289 289 289 291 292 293 294 294 293 290 288 288 288 288 288 288 287 286 286 285 285 285 285 285 285 285 285 285 285 284 284 283 282 281 280 280 280 280 280 280
310 309 309 308 307 307 307 306 306 305 304 304 303 303 303 302 302 302 303 305 307 309 309 308 306 304 304 304 303 301 300 299 299 298 295 291 290 290 290 290 290 290 290 290 289 289 289 290 290 292 293 294 293 290 288 287 287 288 288 288 287 287 286 286 286 286 286 286 286 286 286 286 286 286 285 285 284 283 282 281 280 280 280 280 280
309 308 307 307 306 306 305 305 304 304 303 302 302 301 301 301 301 301 302 303 305 306 307 306 305 303 303 302 300 298 297 297 296 294 292 290 289 289 289 289 290 289 289 289 289 289 289 290 291 293 293 292 290 288 287 287 288 288 289 288 287 287 286 287 287 287 287 287 288 288 288 288 288 287 286 286 284 283 281 280 280 280 280 280 280
308 307 306 305 304 304 303 303 303 302 302 301 301 300 300 300 300 301 301 302 304 304 305 304 303 303 302 301 299 297 296 295 293 291 290 289 289 289 289 289 289 289 289 289 289 290 290 291 292 292 291 288 287 287 287 288 289 289 289 288 288 287 288 288 288 288 288 288 288 288 288 288 288 287 286 285 284 282 280 280 279 279 279 279 279
307 306 305 304 303 303 303 302 302 301 300 300 300 299 300 300 301 301 302 302 302 303 303 303 303 303 303 302 300 299 297 295 293 291 290 289 289 289 289 289 289 289 290 290 291 291 291 292 291 290 288 287 288 288 289 290 290 290 289 289 289 289 289 289 289 289 288 288 288 288 288 287 287 286 285 284 283 281 280 279 279 279 279 279 279
306 305 304 303 303 302 301 300 300 299 299 298 299 299 300 300 301 301 301 302 302 303 303 303 303 303 302 301 301 300 297 294 292 291 290 290 289 289 289 290 290 291 292 292 292 292 291 290 289 289 289 289 290 290 290 291 290 290 290 289 289 289 289 288 288 288 287 287 287 287 287 286 285 284 283 282 281 280 279 279 279 279 279 278 278
304 303 303 302 301 301 300 299 299 298 298 298 298 299 299 299 299 299 300 302 302 302 302 301 301 301 301 301 301 300 297 294 293 293 292 292 293 293 294 294 295 294 294 294 293 291 290 290 290 290 290 290 290 291 291 290 290 290 289 289 289 288 288 287 287 287 286 286 286 286 285 284 283 282 281 280 280 279 279 279 278 278 278 278 277
302 302 301 301 300 300 299 299 299 298 298 298 299 299 299 298 298 299 300 301 301 301 301 301 301 301 301 301 300 299 297 296 297 297 297 297 297 298 298 297 296 296 294 293 292 291 291 291 291 291 291 291 291 291 290 290 290 289 289 289 288 288 287 287 287 286 286 286 285 284 284 283 282 281 280 280 279 279 279 278 278 278 277 277 277
301 301 300 300 300 299 299 299 299 299 299 299 299 299 298 299 299 300 300 300 300 300 300 301 301 301 300 300 300 299 299 299 299 299 298 298 297 297 296 296 295 294 293 292 292 291 291 291 291 291 291 291 290 290 290 289 289 289 288 288 288 288 287 287 287 286 285 284 284 283 282 281 280 280 280 280 279 279 279 278 278 277 277 277 276
301 300 300 299 299 299 299 298 298 298 299 299 299 299 298 299 299 299 299 299 299 298 298 298 299 299 299 299 299 298 298 297 297 296 295 295 294 294 293 293 293 292 292 291 291 291 291 291 291 291 290 290 290 289 289 289 288 288 288 288 288 288 287 287 287 286 285 284 283 282 281 280 279 279 279 280 280 279 279 278 278 277 277 276 276
300 300 299 299 299 299 299 299 299 298 298 299 299 300 300 299 298 297 297 297 297 297 298 298 297 297 297 297 296 296 295 294 293 293 293 293 293 293 292 292 292 292 291 291 291 291 291 290 290 290 289 289 289 289 288 288 288 288 288 288 288 287 287 287 287 286 285 284 283 282 281 280 279 279 279 279 279 279 278 278 277 277 277 276 276
300 300 299 299 299 299 299 299 299 299 299 299 299 299 299 299 298 297 297 297 297 297 297 297 296 295 295 294 294 294 293 293 293 293 293 293 293 293 292 292 292 291 291 291 290 290 290 290 289 289 289 289 289 289 289 289 288 288 288 288 287 287 287 286 286 285 285 284 283 282 281 280 279 279 279 279 278 278 278 277 277 276 276 276 275
299 299 299 299 299 298 299 299 299 300 300 300 300 300 300 300 300 299 298 297 297 296 296 295 294 294 293 293 293 293 293 293 293 293 293 292 292 291 291 291 290 290 290 290 290 289 289 289 289 289 289 289 289 289 289 288 288 288 287 287 287 287 286 286 286 285 284 283 282 281 280 280 279 279 279 279 278 278 277 277 276 276 275 275 275
298 298 299 299 299 299 300 300 300 300 301 300 300 300 300 300 299 299 299 298 297 295 294 293 293 293 293 293 293 293 293 292 292 292 291 291 290 290 290 290 290 289 289 289 289 289 289 289 289 289 289 289 289 288 288 288 287 287 287 287 287 286 286 286 285 284 283 282 281 280 279 279 279 279 278 278 278 277 277 276 276 275 275 275 275
298 298 299 299 299 300 300 300 300 300 300 300 300 300 299 299 298 298 297 297 297 295 294 293 293 293 293 293 293 292 292 291 290 290 290 290 289 289 289 289 289 289 289 289 289 289 289 289 289 289 289 288 288 288 287 287 287 287 287 286 286 286 286 285 284 283 282 281 280 280 279 279 278 278 278 277 277 277 277 276 276 275 275 275 275
299 299 299 299 299 299 299 299 299 299 299 299 299 299 298 298 297 296 295 295 295 294 294 294 293 293 292 292 291 291 290 290 290 289 289 289 289 289 289 289 289 289 290 290 289 289 289 289 289 288 288 288 287 287 287 286 286 286 286 286 286 285 285 284 283 282 281 281 280 279 279 278 278 277 277 276 276 276 276 275 275 275 275 274 274
299 299 299 298 298 298 298 298 298 298 298 298 298 298 297 296 296 295 294 294 293 294 293 293 293 292 291 291 290 290 289 289 289 289 289 289 289 289 289 289 290 290 289 289 289 289 289 288 288 287 287 287 286 286 286 286 286 286 286 285 285 284 284 283 282 281 280 280 279 279 278 278 277 277 276 276 275 275 275 275 274 274 274 274 274
298 298 297 297 297 297 297 297 297 297 298 297 297 296 296 295 294 293 293 293 293 293 292 292 291 290 290 290 289 289 289 289 289 289 289 289 289 289 290 290 289 289 289 289 289 288 288 287 287 287 286 286 286 286 286 286 286 286 285 285 284 283 282 281 281 280 279 279 278 278 277 277 276 276 275 275 275 275 274 274 274 274 273 273 273
297 297 296 296 295 295 295 296 296 296 296 296 295 295 295 294 293 293 293 292 292 291 291 290 290 290 289 289 289 289 289 289 289 289 289 289 290 290 290 289 289 289 289 288 288 288 287 287 286 286 286 286 286 286 286 285 285 285 284 284 283 281 280 279 279 279 278 278 277 277 276 276 275 275 275 275 275 274 274 274 274 274 273 273 273
296 296 295 295 294 295 295 295 295 295 295 295 294 294 294 293 292 291 291 291 290 290 290 290 290 290 290 289 289 289 289 289 289 289 290 290 290 289 289 289 289 289 288 288 287 287 286 286 286 285 285 285 285 285 285 285 285 284 284 283 282 280 279 278 278 277 277 277 276 276 276 275 275 275 275 275 274 274 274 274 273 273 273 273 272
296 296 295 294 294 294 295 295 294 294 293 293 292 292 292 291 290 290 290 290 290 290 290 290 290 289 289 289 289 289 289 289 289 289 289 289 289 289 289 289 288 288 288 287 286 286 286 285 285 285 285 285 285 285 284 284 284 283 282 282 280 279 278 277 277 277 276 276 276 275 275 275 275 274 274 274 274 274 273 273 273 273 272 272 272
295 295 294 294 293 293 293 292 291 291 291 290 290 290 290 290 290 290 290 290 290 290 289 289 289 289 289 289 289 289 289 289 289 289 289 289 289 288 288 288 288 287 287 286 286 285 285 285 285 284 284 284 284 284 284 283 283 282 281 281 280 278 277 277 276 276 276 275 275 275 274 274 274 274 273 273 273 273 273 273 272 272 272 271 271
293 293 292 292 291 291 291 290 290 290 290 290 290 290 290 290 290 290 289 289 289 289 289 289 289 289 289 289 289 289 289 289 289 288 288 288 288 288 288 287 287 286 286 286 285 285 285 284 284 284 284 284 283 283 282 282 282 281 281 280 280 279 277 277 276 276 275 275 275 275 274 274 274 273 273 273 273 272 272 272 272 272 271 271 271
291 291 290 290 290 290 290 290 290 290 290 290 290 289 289 289 289 289 289 289 289 289 289 289 289 289 289 289 289 289 289 289 288 288 288 288 288 287 287 286 286 286 285 285 285 285 284 284 284 283 283 282 282 282 281 281 281 280 280 279 279 278 278 277 276 276 276 275 275 275 274 274 274 274 273 273 273 272 272 272 272 271 271 271 270
291 290 290 290 290 290 290 290 290 289 289 289 289 289 289 289 289 289 289 289 289 289 289 289 289 289 289 288 288 288 288 288 288 287 287 287 287 286 286 285 285 285 285 284 284 284 283 283 282 282 282 281 281 281 280 280 279 279 279 278 278 278 277 277 276 276 275 275 275 274 274 274 274 273 273 272 272 272 271 271 271 271 270 270 270
291 290 290 290 290 290 289 289 289 289 289 289 289 289 289 289 289 289 289 289 289 289 289 289 288 288 288 288 287 287 287 287 287 287 286 286 286 285 285 285 284 284 284 284 283 283 282 282 281 281 280 280 280 279 279 279 278 278 277 277 277 276 276 276 275 275 274 274 274 274 273 273 273 272 272 271 271 271 270 270 270 270 270 269 269
290 290 290 290 289 289 289 289 289 289 289 289 289 289 289 289 289 289 289 289 288 288 288 288 287 287 287 287 287 286 286 286 286 285 285 285 285 284 284 284 284 283 283 282 282 281 281 280 280 279 279 279 278 278 278 277 277 277 276 276 276 275 275 275 274 274 273 273 273 273 273 272 272 272 271 271 270 270 270 270 269 269 269 269 269
289 289 289 289 289 289 289 289 289 288 288 288 288 288 288 288 288 288 288 288 287 287 287 287 286 286 286 286 286 285 285 285 284 284 284 284 284 283 283 283 282 282 281 281 280 280 279 279 278 278 278 278 277 277 276 276 276 275 275 275 275 274 274 274 274 273 273 272 272 272 272 271 271 271 270 270 270 269 269 269 269 269 268 268 268
289 289 289 288 288 288 288 288 288 288 288 288 287 287 287 287 287 287 287 287 286 286 286 286 286 285 285 285 284 284 284 284 283 283 283 283 283 282 282 281 281 280 280 279 279 278 278 277 277 277 277 276 276 276 275 275 275 274 274 274 273 273 273 273 272 272 272 271 271 271 271 270 270 270 270 269 269 269 269 269 268 268 268 268 268
288 288 288 288 288 288 288 288 288 288 287 287 287 287 287 286 286 286 286 286 285 285 285 284 284 284 284 283 283 283 283 283 283 282 282 282 281 281 280 280 279 279 278 278 277 277 277 276 276 276 275 275 275 274 274 274 274 273 273 273 272 272 272 272 271 271 271 270 270 270 270 270 270 269 269 269 269 268 268 268 268 268 268 267 267
287 287 287 287 287 287 287 287 287 287 287 287 287 286 286 286 285 285 285 284 284 284 283 283 283 283 283 283 282 282 282 282 281 281 280 280 280 279 279 278 278 278 277 277 276 276 276 275 275 275 274 274 274 273 273 273 272 272 272 272 271 271 271 271 270 270 270 270 269 269 269 269 269 269 268 268 268 268 268 268 267 267 267 267 267
Wind_Speed
25 27 28 27 27 28 31 35 38 40 39 38 36 35 35 36 35 33 33 33 33 33 35 36 37 37 36 33 32 32 33 37 40 41 41 40 38 38 39 39 38 37 35 33 31 30 28 28 27 25 23 20 18 16 14 12 11 9 8 8 11 13 14 14 14 14 16 16 16 16 16 16 16 16 16 16 16 16 16 15 15 16 17 17 18
23 25 26 27 26 27 30 33 37 39 40 39 39 37 37 38 38 36 35 35 35 34 35 37 39 39 38 35 32 32 34 37 41 42 41 40 39 39 40 39 38 37 36 34 33 31 30 29 27 25 23 21 18 16 14 13 11 9 8 10 13 14 15 15 15 15 16 17 17 17 16 16 16 16 16 16 17 16 16 16 16 16 17 17 18
22 23 24 26 26 26 28 32 35 37 39 40 40 40 39 40 41 40 37 37 37 37 37 38 41 41 39 36 33 31 33 38 42 42 41 40 39 40 40 39 39 38 37 35 34 32 31 29 27 25 23 21 19 17 15 13 11 9 10 13 14 14 15 15 15 15 16 17 17 17 17 16 16 16 17 17 17 17 17 17 17 18 18 19 19
22 23 23 25 25 25 27 31 35 37 38 40 40 41 41 41 42 42 40 38 39 39 39 40 42 43 41 37 33 31 32 37 42 42 40 39 39 40 41 40 39 39 37 35 34 33 32 30 27 25 23 22 19 18 16 13 10 9 12 14 15 14 14 15 16 15 16 16 17 18 18 18 17 17 18 17 17 17 18 19 19 20 21 22 22
23 23 23 24 24 24 25 29 35 38 39 39 39 40 41 43 44 44 43 41 40 40 41 41 43 45 43 37 33 32 32 36 42 43 41 39 39 41 41 40 39 38 36 34 34 33 31 29 27 25 24 23 21 19 16 13 9 11 14 15 15 14 14 15 16 16 16 16 16 18 19 19 18 18 18 18 18 19 20 21 21 23 24 25 25
23 24 25 25 24 23 24 28 34 37 39 39 39 39 41 44 46 46 47 44 41 41 41 41 43 46 44 37 33 32 33 35 40 42 41 40 40 41 41 40 39 37 36 34 33 32 30 28 27 26 25 23 21 20 16 11 10 13 16 15 14 14 15 15 16 16 17 18 18 19 19 19 19 19 19 19 20 21 22 22 23 24 26 27 27
25 26 27 27 25 24 23 27 33 37 39 39 38 39 40 43 45 47 48 47 43 42 41 42 43 46 44 37 33 33 34 36 39 42 42 40 41 42 41 39 38 36 35 33 32 30 28 27 27 26 25 24 22 20 16 11 12 15 16 15 14 15 16 16 16 17 19 20 20 20 20 21 21 21 21 21 23 24 24 25 26 26 28 29 30
28 28 28 28 26 25 24 26 31 36 39 39 39 39 39 41 43 45 47 46 45 43 42 42 43 45 43 37 34 34 35 37 40 42 42 40 41 43 41 39 38 36 34 33 31 30 29 28 28 27 26 24 23 21 16 12 14 17 16 15 15 15 16 16 17 18 20 21 21 21 22 23 23 23 23 24 25 26 26 27 29 29 29 31 32
30 31 31 29 28 27 26 26 30 35 38 39 40 40 40 41 42 44 45 46 45 44 42 42 43 45 43 38 35 35 36 38 41 42 42 40 40 42 41 39 38 36 34 33 32 30 30 30 29 28 26 25 24 21 16 14 16 17 16 14 14 15 15 16 18 19 21 22 22 23 24 25 25 25 26 26 27 28 28 29 31 31 31 33 33
34 34 33 30 30 30 30 29 30 34 38 40 41 41 41 42 44 45 47 47 46 44 42 42 44 45 43 39 37 37 37 39 40 40 40 39 40 41 40 38 37 36 35 34 33 32 31 31 31 29 27 26 26 22 18 17 18 17 15 13 14 15 15 17 19 20 22 23 23 24 26 27 27 26 28 28 28 30 31 32 32 32 33 34 35
38 37 35 32 32 32 32 32 32 35 38 40 42 42 42 43 46 47 48 48 47 45 43 42 44 45 42 39 38 39 38 37 39 40 39 39 39 40 40 39 37 37 35 34 34 33 33 33 32 30 29 28 26 23 20 19 19 17 15 14 15 15 16 17 20 21 23 24 24 25 28 29 28 28 29 29 30 32 33 33 34 34 34 35 35
42 40 37 35 35 34 34 34 34 35 38 41 42 42 42 43 46 48 49 48 48 47 44 43 45 44 41 39 39 38 35 33 36 40 40 38 39 40 40 39 38 37 36 34 34 34 34 34 32 32 31 29 26 24 22 22 20 18 17 17 17 17 17 18 20 21 23 24 26 28 29 30 30 30 30 31 31 32 33 34 35 35 35 35 36
47 44 39 37 37 36 36 37 36 37 38 41 43 43 42 44 46 48 49 48 48 47 46 45 46 44 41 40 38 35 31 30 35 40 41 40 40 41 40 38 37 36 35 35 35 35 34 33 33 32 31 28 26 25 25 23 21 20 20 21 21 20 20 20 21 22 23 25 27 29 29 30 32 32 32 32 33 34 35 36 36 35 35 36 37
49 47 43 40 39 39 39 39 39 39 39 41 43 44 44 45 46 48 48 48 47 47 47 49 50 48 44 40 36 33 30 30 34 40 42 41 42 41 39 38 36 35 35 35 35 35 34 33 33 32 30 28 27 27 27 25 23 22 23 25 26 25 23 23 23 23 24 25 27 28 28 30 33 33 33 34 36 36 36 36 36 35 36 37 39
49 49 46 44 41 40 41 42 41 41 40 41 43 45 46 47 47 48 49 48 47 47 48 50 52 50 45 40 36 33 32 31 34 39 42 42 42 41 40 38 37 35 35 35 35 34 33 32 32 30 29 28 28 29 29 26 24 23 24 26 28 28 28 26 25 25 26 27 28 29 29 30 32 34 35 36 37 37 37 37 37 36 37 39 40
48 48 48 47 45 42 42 44 44 43 42 42 43 45 48 49 49 49 49 49 48 46 46 48 50 50 46 42 39 37 35 33 34 39 43 43 43 42 41 39 38 37 36 35 34 33 32 31 30 29 28 28 29 31 30 27 26 25 25 26 27 29 30 30 28 28 28 29 30 30 31 31 33 35 35 36 37 38 38 38 39 38 39 41 41
46 47 49 50 48 45 43 44 46 45 44 43 43 45 47 50 51 51 49 49 49 48 48 49 50 49 47 46 43 38 35 33 34 39 43 44 44 44 42 40 39 37 36 35 33 33 32 30 29 28 28 29 31 31 29 28 29 29 28 28 28 29 31 32 32 33 33 33 33 34 34 35 35 36 36 36 37 37 38 39 40 39 39 40 41
44 46 48 50 50 47 44 45 47 47 45 44 44 44 45 48 51 52 50 50 49 49 48 49 49 48 48 49 44 37 34 33 34 38 43 44 45 45 43 41 39 37 36 34 33 33 31 30 29 29 29 30 31 31 28 29 33 31 30 29 30 31 32 32 33 35 37 37 38 38 38 39 38 38 37 36 35 36 38 39 39 38 39 40 41
41 43 46 48 49 48 46 46 47 47 46 44 43 43 44 45 48 50 50 49 48 47 45 45 47 48 49 48 42 36 33 32 33 38 42 44 45 44 42 40 39 37 35 33 33 33 31 30 30 30 30 31 32 31 29 31 35 33 31 30 31 32 32 32 33 35 37 39 40 40 41 41 40 39 38 37 35 34 36 38 38 39 40 41 41
39 41 43 45 47 48 46 46 46 46 45 43 41 42 43 42 44 48 48 48 47 45 42 42 44 46 46 42 38 35 33 31 33 36 40 42 43 42 41 40 38 36 33 33 33 33 32 32 33 32 32 33 33 31 30 33 35 33 32 32 32 32 31 31 33 34 36 38 39 40 41 41 40 40 39 38 36 34 34 35 37 39 40 41 40
38 41 42 43 45 45 45 44 44 44 43 41 39 40 40 40 41 44 45 45 44 43 42 41 41 41 39 36 35 34 32 31 32 35 37 39 40 41 40 39 36 34 33 33 33 33 33 34 34 34 34 34 32 30 31 34 34 34 34 33 32 31 31 33 34 35 36 38 39 41 41 41 41 41 40 39 36 34 32 31 32 34 35 35 36
38 39 41 41 42 43 43 42 42 41 40 38 37 37 37 36 36 38 41 42 42 41 41 39 37 35 34 33 32 32 30 30 31 33 35 37 39 40 39 38 35 34 34 34 34 34 35 35 36 35 35 32 30 30 32 33 34 34 34 33 32 31 32 34 34 35 36 38 39 40 40 40 40 40 40 38 35 32 28 25 24 25 26 28 30
36 38 39 39 40 40 39 39 38 37 36 35 34 34 34 31 30 33 37 39 40 39 38 35 34 33 33 32 31 28 27 28 30 32 33 35 36 37 37 36 35 35 34 35 35 35 36 36 37 36 33 30 29 30 32 33 33 32 31 31 31 31 31 32 33 34 35 36 37 38 38 38 38 38 37 36 32 29 26 23 21 20 22 24 26
34 35 36 36 37 36 35 34 34 33 32 31 31 31 31 29 28 31 34 36 37 35 33 32 33 33 33 31 28 26 26 27 28 30 31 32 33 34 35 36 36 35 36 36 37 37 37 37 36 32 30 29 30 31 31 30 30 29 29 29 29 29 29 30 31 32 33 34 34 35 35 35 35 35 33 32 30 29 27 24 23 22 22 23 24
32 32 32 32 32 32 31 31 30 30 29 28 28 29 29 29 29 30 32 33 32 31 30 30 31 32 32 30 27 26 27 27 28 29 30 31 32 34 35 36 36 37 38 38 38 38 37 35 32 30 29 29 29 28 28 27 27 27 26 26 26 26 27 29 29 30 31 31 31 32 32 32 32 32 31 30 30 30 28 26 25 24 24 24 25
29 28 28 28 28 29 29 28 27 26 25 25 25 26 26 27 29 31 31 30 29 28 29 30 30 32 31 28 26 27 28 28 29 30 31 32 34 35 35 36 37 38 38 37 36 34 32 30 29 29 28 27 26 26 26 25 25 25 24 23 23 24 25 26 26 27 28 28 29 29 30 30 30 30 30 30 30 30 29 27 27 26 26 25 26
26 26 26 26 27 27 26 26 25 24 23 23 23 24 24 26 28 29 29 29 28 28 29 29 29 28 26 25 25 26 27 28 28 29 31 32 33 33 34 35 35 35 34 33 32 30 29 28 28 27 25 24 24 25 25 24 23 22 21 21 22 23 23 23 23 24 25 26 26 27 28 28 29 29 29 30 30 30 29 28 28 28 27 26 26
24 25 25 25 25 25 24 23 23 22 22 22 22 22 23 23 23 24 25 26 25 25 25 25 25 24 24 25 26 26 26 26 26 26 27 28 29 30 30 30 30 30 29 28 28 27 26 26 25 24 24 24 24 24 23 22 21 21 21 22 22 22 22 22 22 23 24 25 25 26 27 27 28 29 30 31 31 31 30 29 29 28 27 26 27
23 23 23 23 22 22 21 21 20 20 21 21 20 19 19 19 19 19 20 21 21 20 21 21 22 23 23 24 23 22 21 21 21 21 22 23 23 24 25 25 25 24 24 24 24 24 24 23 23 23 23 23 23 22 21 20 20 21 23 23 23 22 22 22 23 24 24 25 25 25 25 26 27 29 30 31 31 31 30 29 28 27 26 26 28
21 21 21 20 20 20 19 19 19 19 19 20 20 20 19 19 18 17 18 19 18 18 18 17 17 18 18 18 17 15 14 13 15 17 19 20 21 21 21 21 21 21 22 23 23 23 23 22 22 22 22 22 21 19 18 19 21 22 23 23 23 23 23 24 24 25 25 25 25 24 23 24 27 29 29 29 28 28 28 28 27 27 27 27 28
19 20 19 19 19 19 19 19 19 19 19 20 21 21 22 21 20 18 18 17 17 16 15 14 14 14 14 15 14 14 14 14 16 18 20 21 21 21 21 22 22 22 23 23 22 22 22 21 21 21 21 20 19 18 19 20 22 22 22 22 23 23 24 24 25 25 25 25 24 23 22 23 25 27 27 26 26 27 27 28 28 28 27 26 27
16 18 18 19 19 20 20 20 20 21 21 21 21 21 22 22 21 19 18 17 15 15 14 14 14 15 15 15 15 16 17 18 19 20 21 22 21 21 22 22 22 22 22 21 21 21 21 21 21 20 19 19 18 19 20 21 21 21 21 22 22 23 24 24 25 26 25 25 24 22 21 21 22 23 24 24 25 27 28 28 28 28 27 27 27
14 15 17 18 19 19 19 19 19 19 19 20 20 20 20 20 20 20 19 18 17 16 16 17 17 17 18 18 18 19 19 20 21 21 21 21 21 21 21 21 20 20 20 20 20 21 21 21 20 19 19 19 19 20 21 21 21 21 21 21 22 22 23 24 24 25 25 24 23 21 20 19 19 20 21 23 24 26 27 28 28 28 28 28 29
13 14 15 16 16 16 16 16 16 16 17 17 18 18 19 19 19 19 20 20 21 21 20 20 20 20 20 21 21 21 21 21 21 21 21 21 21 20 20 20 20 20 21 21 21 21 21 20 19 19 19 20 20 21 21 20 20 20 20 21 22 22 22 23 24 24 23 23 22 20 19 18 18 19 20 21 23 25 26 27 28 28 28 29 29
12 13 13 13 13 13 12 13 13 13 13 14 15 16 17 17 18 18 19 21 22 23 23 23 23 22 22 21 21 21 21 21 22 22 21 21 20 20 20 20 21 22 22 22 22 21 20 20 19 19 20 21 21 21 20 19 19 19 20 21 21 21 22 23 23 23 22 21 21 20 20 19 19 19 19 20 21 23 25 26 27 27 27 27 26
12 12 12 12 12 11 10 10 10 10 11 12 13 15 16 17 18 19 20 21 22 23 23 23 24 23 22 21 21 21 21 21 21 21 20 20 20 20 21 22 22 22 22 22 21 20 20 20 20 20 21 21 20 19 18 18 18 19 20 20 20 20 21 22 22 21 20 20 21 20 20 20 20 19 19 19 20 21 22 23 23 23 23 23 23
12 11 11 11 11 11 11 11 11 12 13 14 16 17 18 18 19 20 21 21 22 22 22 22 22 22 22 22 22 22 21 21 20 19 19 20 21 22 22 22 21 22 21 21 20 20 20 20 20 21 21 20 18 17 17 18 19 20 20 20 20 21 21 21 21 21 20 20 20 20 20 20 19 18 18 18 18 19 20 20 21 21 21 21 21
12 12 12 11 11 12 13 13 14 15 17 17 18 19 19 19 19 20 20 21 21 20 20 20 20 20 20 21 21 21 21 20 20 21 21 22 22 22 22 22 21 21 20 20 19 19 20 20 20 20 18 17 16 17 18 19 20 20 21 21 21 21 21 21 21 21 21 20 20 20 19 19 18 18 18 19 19 19 20 20 21 21 21 21 23
13 13 13 13 13 14 15 15 16 18 18 19 19 18 18 19 19 19 20 20 20 19 19 19 19 19 19 19 20 20 21 21 22 22 22 22 23 22 22 21 20 19 19 19 19 19 19 19 19 17 16 16 17 18 18 19 20 21 21 22 22 22 21 21 21 22 22 21 21 20 20 20 20 19 20 21 21 21 22 22 23 23 23 24 25
16 16 17 17 17 17 17 18 18 18 18 18 18 18 18 18 18 19 19 19 19 18 18 18 18 18 18 19 20 20 20 21 21 21 22 22 21 21 20 19 19 19 19 19 19 19 19 18 17 16 16 17 18 18 19 20 21 22 22 22 22 23 22 22 22 23 23 23 23 22 22 22 22 22 23 23 23 23 23 23 24 24 24 25 26
19 20 20 19 18 18 18 17 17 16 17 16 16 17 17 17 17 17 17 17 17 17 17 18 19 19 19 20 20 20 20 20 20 20 21 20 19 19 19 19 19 20 20 20 19 19 19 18 17 17 17 18 18 19 20 21 21 22 22 22 23 23 24 24 24 25 25 25 25 25 25 25 24 24 24 24 24 25 25 25 26 26 26 27 27
19 19 18 18 17 16 16 16 16 15 16 16 16 16 16 16 16 16 17 17 17 18 19 20 20 20 20 21 21 21 22 21 21 20 20 19 19 19 20 20 21 21 21 20 20 19 19 18 18 18 18 19 19 20 21 21 21 21 22 22 23 24 25 25 25 25 26 27 27 27 27 27 26 26 26 25 26 27 28 28 28 27 27 26 26
17 16 15 15 15 15 15 15 15 15 16 16 16 16 16 16 17 17 18 19 20 20 21 21 20 20 20 21 22 22 22 22 21 20 19 19 20 20 21 21 21 21 21 21 20 19 19 18 18 19 19 19 20 20 21 21 21 21 22 23 24 24 25 26 26 27 27 28 28 29 29 29 29 29 28 28 28 27 27 27 27 26 25 25 25
16 15 14 14 14 14 15 15 15 16 16 16 16 17 17 18 18 19 20 20 20 20 20 20 20 20 21 21 22 22 22 21 20 20 19 19 20 20 21 21 21 21 21 21 20 20 19 19 19 19 19 19 20 20 21 21 21 21 22 23 23 24 25 26 26 26 27 28 28 28 28 29 29 29 28 27 26 26 25 25 25 24 24 24 24
14 14 14 15 15 15 16 16 16 17 17 17 17 18 19 19 19 20 20 20 20 20 20 20 20 20 21 21 21 21 21 20 20 19 19 20 20 21 21 21 21 21 21 20 20 20 19 19 19 19 19 20 20 21 21 21 21 22 22 23 23 24 25 25 25 25 25 25 26 26 26 26 26 26 25 25 24 24 23 23 23 23 23 22 22
15 15 15 16 16 16 16 16 17 17 18 18 18 18 18 19 19 19 19 19 20 20 20 20 20 20 20 20 20 20 20 19 19 19 20 20 20 20 20 20 20 21 20 20 20 20 19 19 20 20 20 20 21 21 21 22 22 22 22 23 23 24 25 25 25 24 24 24 24 24 24 25 24 24 23 23 22 22 22 21 21 21 21 21 21
15 15 16 16 16 17 17 17 17 17 18 18 18 18 18 18 18 19 19 19 19 19 20 20 20 20 20 20 20 20 20 20 19 19 19 19 19 19 19 20 20 20 20 20 20 20 19 20 20 20 21 21 21 22 22 22 22 23 23 23 24 25 25 25 24 23 23 23 23 23 23 24 23 23 22 21 21 21 20 20 19 20 20 20 20
16 16 17 17 18 18 18 17 17 17 16 17 17 17 17 17 18 18 18 18 18 19 19 19 19 19 19 19 19 19 19 19 18 18 18 18 18 18 19 20 20 20 20 19 19 20 20 20 21 21 22 22 22 23 23 23 23 23 23 23 24 24 24 24 24 23 22 22 22 22 22 23 22 22 21 20 19 19 19 19 19 19 19 19 19
17 17 17 17 17 17 17 16 16 16 16 16 16 16 16 17 17 17 17 18 18 18 18 18 18 18 18 18 18 18 18 17 17 17 17 18 19 19 19 20 20 20 20 20 20 20 21 21 22 22 23 23 23 23 23 23 23 23 23 23 23 23 23 23 23 22 22 21 21 21 21 22 21 21 20 19 19 18 18 18 18 18 18 19 18
14 15 15 15 15 15 15 15 15 15 15 16 16 16 16 17 16 16 17 17 17 17 17 17 17 17 17 17 17 17 17 17 17 18 18 19 19 19 20 20 20 20 20 20 20 21 21 22 23 23 23 23 24 23 23 23 23 23 23 22 22 22 22 22 22 21 21 21 21 21 21 21 21 20 19 19 19 18 18 17 17 18 18 18 18
12 13 13 13 14 14 14 14 15 15 16 16 16 16 16 16 16 16 16 16 16 16 16 16 16 16 16 16 16 17 17 17 18 18 19 19 19 19 19 19 20 20 20 21 21 22 22 23 23 24 24 24 23 23 23 23 23 23 23 22 22 22 22 21 21 21 21 21 21 20 20 20 20 19 18 18 19 18 18 18 18 18 18 18 18
Wind_Direction
280 281 280 275 266 255 244 235 232 233 235 233 228 224 222 219 216 216 220 221 220 220 224 225 221 219 221 223 224 224 223 221 219 219 218 217 217 218 217 215 214 214 216 217 218 219 220 220 219 218 218 219 218 218 221 226 231 238 254 273 287 290 287 286 281 274 274 279 281 285 289 291 293 298 305 309 309 309 311 315 317 318 319 319 318
282 285 284 279 272 262 249 238 233 233 233 232 228 225 223 220 217 220 222 222 224 224 223 223 221 219 221 223 224 225 226 225 222 220 219 218 218 218 217 215 215 215 216 217 218 219 219 220 220 218 218 218 217 218 221 224 229 240 265 285 291 291 289 285 280 275 275 277 281 285 288 291 296 300 304 306 306 308 312 313 314 314 313 313 314
278 282 286 283 277 267 254 241 234 232 232 231 228 225 224 223 222 225 225 222 225 225 225 226 223 220 220 220 222 226 229 228 224 220 221 221 220 219 217 216 216 216 217 218 218 220 220 220 220 218 218 216 215 218 221 222 229 251 280 292 292 290 287 281 275 273 274 277 282 286 288 291 297 300 301 302 304 307 309 308 307 308 308 309 311
274 274 281 284 279 271 259 244 234 232 233 232 230 226 225 225 225 227 226 224 224 225 227 229 226 221 218 218 221 227 231 231 226 222 222 224 223 221 218 217 217 218 219 219 219 220 221 220 220 218 216 216 216 218 219 221 238 271 292 295 291 286 280 274 272 273 274 278 283 285 287 291 296 297 297 298 301 303 302 301 302 304 305 307 308
274 270 272 278 280 275 264 248 237 234 234 234 233 230 226 226 226 226 226 226 226 226 228 230 227 222 218 219 224 229 232 233 230 225 223 224 225 223 221 219 219 220 220 221 222 222 222 221 220 218 217 217 218 217 217 226 256 290 298 293 287 280 272 269 271 275 277 280 281 280 283 289 293 292 293 295 297 296 295 296 298 301 302 303 305
273 268 265 268 275 276 265 252 243 237 235 235 234 232 229 228 227 226 227 227 227 228 229 230 227 222 218 219 226 232 234 233 232 229 226 225 224 223 223 222 221 221 221 221 222 223 223 222 220 219 220 220 219 217 218 235 276 299 299 289 281 275 269 267 270 275 278 280 279 278 281 286 287 287 289 291 291 289 290 292 294 297 298 299 301
271 266 263 261 267 273 268 256 247 240 236 235 234 233 231 229 228 227 227 228 228 229 230 230 226 221 219 221 227 234 236 234 231 230 229 227 225 224 223 222 222 221 221 221 221 221 221 221 221 221 221 221 220 219 221 246 286 299 295 285 278 273 269 267 269 274 277 279 278 279 282 283 283 285 286 287 286 287 289 290 291 294 295 297 299
268 266 262 260 262 269 269 259 249 243 238 236 235 234 231 229 228 226 225 226 227 230 231 230 226 220 218 222 228 234 236 232 229 230 229 227 226 225 223 222 222 220 219 219 220 220 219 219 221 222 223 223 222 221 227 256 287 295 291 283 278 274 271 269 270 274 277 278 278 279 282 282 282 284 284 283 284 286 289 290 291 293 294 295 297
266 264 261 262 263 263 264 260 252 245 240 237 236 235 232 229 226 224 224 224 226 229 232 231 225 218 218 223 229 234 236 231 228 229 229 226 226 225 224 224 222 220 218 218 218 219 219 219 221 223 223 223 221 222 233 261 284 292 287 280 278 275 273 273 272 275 277 278 279 280 281 282 283 284 283 284 286 287 288 288 290 293 294 295 297
263 263 262 263 262 258 258 258 253 247 243 239 237 235 233 229 225 224 224 224 226 229 232 230 222 216 218 224 229 234 237 232 228 229 230 227 226 225 224 224 223 221 220 219 218 218 219 220 223 223 222 221 220 225 240 263 282 288 280 275 277 276 277 277 274 275 277 279 281 281 280 282 285 286 286 287 288 287 287 289 290 292 294 295 297
260 263 262 262 260 256 256 256 253 249 246 242 238 236 234 231 226 224 224 225 227 229 232 229 219 215 220 226 229 234 237 234 229 228 228 228 227 227 226 225 224 222 221 221 221 221 220 221 222 222 221 221 222 229 245 263 279 282 273 273 277 276 278 279 277 278 279 281 283 282 281 284 286 287 288 290 290 289 289 289 289 290 292 294 297
259 261 261 260 258 256 254 254 253 251 248 245 241 237 234 232 228 225 224 227 229 230 231 227 218 217 222 225 227 232 235 236 232 227 226 226 226 227 227 227 225 223 221 222 223 224 224 224 223 222 223 222 225 234 248 263 276 276 269 270 275 274 276 277 278 280 281 282 283 282 282 285 287 288 290 292 292 290 288 288 287 289 291 293 296
260 260 259 259 258 256 254 253 253 252 250 247 243 238 234 232 230 227 225 228 230 231 230 225 220 221 225 226 228 231 234 237 234 227 223 223 223 224 225 226 227 225 223 223 224 224 225 225 224 224 223 223 227 238 250 261 271 274 269 268 271 274 275 276 277 280 281 282 282 282 284 286 287 289 291 292 290 288 288 288 288 289 290 292 296
260 259 258 259 258 256 254 253 253 252 250 247 244 240 236 232 231 228 227 228 231 232 230 224 220 222 226 228 230 232 235 239 235 227 223 221 221 222 224 225 226 225 225 225 225 225 226 227 227 226 224 226 232 241 252 260 267 273 271 268 269 271 272 275 277 279 281 282 282 284 287 288 289 290 291 289 288 288 288 288 287 287 289 291 293
262 259 257 257 257 256 255 254 252 251 250 248 244 241 237 233 230 229 228 229 231 232 231 225 220 221 225 229 232 233 235 238 235 228 224 222 221 221 223 224 224 223 224 225 226 227 228 229 229 227 227 232 238 245 254 259 263 272 276 273 271 269 268 272 277 279 281 283 284 287 290 290 291 290 289 287 287 287 287 287 286 287 288 289 290
265 260 257 257 258 257 256 254 253 251 249 248 246 242 239 234 231 230 229 229 230 231 230 227 223 224 228 233 235 234 233 235 234 228 224 222 221 221 222 222 222 223 223 223 225 226 228 229 228 227 231 236 241 249 257 258 258 271 283 282 277 271 268 270 273 276 280 283 285 288 290 291 291 290 289 288 288 288 288 287 286 287 287 287 287
268 265 261 259 258 258 257 255 253 251 249 248 248 246 241 236 232 230 229 229 230 230 230 228 226 227 231 234 234 233 231 232 232 228 223 222 221 221 221 221 221 222 222 222 223 224 226 227 225 227 233 238 246 255 260 255 254 269 285 288 283 278 274 272 271 272 277 282 285 287 289 289 289 290 290 289 289 289 287 286 287 288 287 285 287
273 270 266 263 260 259 257 254 252 251 250 250 250 248 245 239 234 231 229 230 231 232 232 230 228 229 232 233 233 234 233 232 232 227 222 221 222 222 222 222 222 222 222 222 224 225 226 225 225 229 235 242 255 263 261 252 253 267 285 289 284 280 277 276 275 274 277 281 284 288 289 290 290 290 290 290 289 289 288 289 290 289 285 285 289
277 275 271 267 262 258 256 254 251 251 251 251 250 249 246 242 237 232 230 230 232 233 233 232 232 233 233 232 232 234 235 236 235 229 222 221 222 222 223 223 223 223 222 223 225 226 225 224 227 232 238 249 262 266 259 252 254 267 283 286 279 276 276 278 279 278 279 281 284 287 289 290 291 291 291 291 289 287 288 290 290 288 286 289 291
280 276 271 266 261 257 255 253 252 251 251 251 249 248 246 244 239 233 230 230 232 234 235 237 238 236 232 230 230 231 233 237 236 229 223 222 222 223 224 225 225 225 224 226 227 226 225 226 230 235 245 258 265 264 258 254 258 271 282 280 275 274 275 277 278 278 279 280 282 284 286 287 288 288 289 290 288 286 284 284 284 285 287 289 289
279 273 269 265 261 258 256 254 251 250 251 250 248 247 246 246 242 236 231 230 231 233 236 239 239 235 231 230 230 231 232 234 232 227 223 222 222 223 225 227 228 227 228 229 229 228 228 230 234 242 253 263 264 260 257 257 263 274 280 276 273 273 273 273 275 276 278 280 281 283 284 285 287 288 289 290 289 288 285 281 280 282 283 285 285
276 273 270 266 262 258 256 253 250 249 249 249 247 246 246 246 243 237 233 232 231 232 235 237 235 230 227 228 230 231 231 230 227 223 220 219 221 224 226 229 230 230 231 231 231 231 232 235 241 251 260 263 261 257 256 259 267 275 275 272 271 270 270 272 274 276 278 280 282 284 285 287 290 292 293 293 294 294 294 291 287 284 284 285 285
276 272 268 265 262 258 254 251 248 248 249 248 246 244 244 242 238 233 231 231 230 231 231 230 228 225 224 225 227 227 227 226 224 221 218 219 221 224 227 230 232 233 233 233 234 234 237 242 249 257 261 259 258 257 257 262 268 270 269 268 268 268 270 272 275 277 279 281 283 286 288 292 294 295 296 297 299 301 302 301 298 294 291 289 288
275 270 266 263 259 255 251 248 247 247 247 245 242 240 239 237 232 229 228 228 229 229 226 224 223 224 224 223 221 221 223 223 221 220 219 220 221 224 227 229 230 232 233 235 237 239 243 248 253 256 256 255 256 257 259 263 265 264 263 265 266 268 271 274 277 279 281 283 286 289 292 295 296 297 298 300 302 304 304 304 302 299 296 293 291
273 268 264 259 255 251 248 246 245 244 242 240 237 235 234 233 231 229 228 227 226 224 221 221 224 226 225 222 219 219 219 217 217 216 217 218 220 222 224 226 228 231 234 237 241 244 246 248 249 249 251 253 256 258 260 260 259 259 260 262 265 269 272 275 278 281 283 286 289 292 296 298 298 299 301 302 303 303 303 303 302 300 297 294 291
270 265 259 254 250 247 243 240 238 237 235 233 233 233 233 233 232 231 229 226 222 220 220 222 225 227 227 225 222 220 216 213 212 212 213 215 218 220 223 226 229 232 236 239 240 241 241 242 244 246 250 253 255 257 257 256 257 259 262 265 269 274 276 277 280 282 284 288 292 295 298 299 300 301 302 302 301 300 300 300 299 297 296 295 292
266 260 254 248 244 240 237 234 231 228 225 223 224 226 228 231 233 233 229 223 219 220 223 227 230 231 230 228 225 222 217 214 213 213 213 216 218 221 223 226 228 230 231 232 232 234 236 239 242 246 249 250 252 253 253 256 259 264 269 273 275 276 278 279 282 285 289 293 297 298 299 299 299 298 297 296 295 295 295 295 295 295 295 295 291
261 255 250 244 239 235 232 228 223 219 216 215 216 220 222 225 229 230 229 226 226 229 232 233 234 234 231 229 226 221 216 215 214 214 215 216 217 219 221 222 223 224 225 227 229 232 236 238 240 243 244 246 248 250 254 260 267 273 276 278 279 281 285 288 291 294 297 300 300 298 298 297 295 291 289 289 289 289 290 291 292 293 293 291 288
256 250 244 239 235 230 226 221 215 211 209 207 208 212 218 221 223 224 225 227 230 234 237 237 235 233 230 229 226 222 219 218 216 214 214 216 217 219 221 222 222 223 224 227 229 231 233 235 237 239 242 244 248 253 261 270 276 279 281 283 287 292 295 297 298 299 300 300 298 296 294 291 287 284 283 283 284 285 287 289 290 290 289 287 286
246 241 236 231 227 221 216 211 207 205 203 202 201 203 208 212 215 218 221 223 224 225 228 229 230 231 230 228 227 225 223 221 218 214 213 213 214 215 216 218 219 220 222 224 225 227 230 233 236 239 243 247 253 260 268 273 276 279 282 287 291 294 296 297 298 299 299 298 296 294 289 284 280 280 280 281 282 282 284 286 286 286 284 284 285
236 233 229 222 218 213 206 202 199 198 199 200 201 202 204 205 206 209 213 215 215 215 214 213 215 219 221 220 219 215 209 205 206 209 210 210 210 209 209 210 212 214 218 221 224 227 230 233 237 241 246 251 257 263 268 270 273 277 281 286 290 293 296 298 298 298 298 297 295 292 286 279 276 277 280 282 281 281 281 282 282 282 282 283 283
228 227 222 215 210 205 200 197 196 196 197 198 199 203 206 205 203 204 204 204 206 206 206 207 207 208 209 209 208 207 205 202 203 205 207 208 208 207 207 209 211 214 218 221 225 229 232 236 240 245 249 255 260 264 267 270 273 276 280 285 289 292 294 296 296 296 296 297 297 294 288 281 278 278 279 281 281 280 280 280 280 280 281 281 281
220 221 217 210 203 198 195 194 196 197 198 198 199 202 206 208 207 205 201 199 201 202 203 204 204 205 206 205 203 203 204 203 204 204 205 206 206 207 208 211 214 217 221 225 228 231 235 238 242 247 253 258 262 265 267 270 272 276 280 284 288 290 291 293 294 295 298 301 301 299 293 287 283 280 280 280 280 279 279 279 279 279 279 279 279
209 212 209 202 197 194 191 191 195 196 196 198 200 201 204 207 209 209 206 202 200 200 200 202 203 206 207 206 204 203 202 202 204 205 204 205 207 208 209 212 215 220 224 228 231 234 237 241 245 250 255 259 262 264 266 269 272 276 281 285 288 290 292 293 296 299 302 304 304 302 297 291 287 284 282 280 279 278 277 278 278 279 279 280 282
193 198 199 196 196 195 191 190 193 195 196 199 202 204 206 208 210 212 213 213 208 204 201 201 203 205 206 206 205 204 202 202 203 204 204 206 208 211 214 217 221 225 228 231 233 236 239 244 249 254 257 259 260 261 263 267 272 277 283 286 289 292 295 297 299 301 302 302 301 300 297 294 292 289 285 281 279 278 279 280 280 281 283 284 284
183 187 193 196 198 199 200 200 202 205 208 210 211 212 213 215 214 213 213 214 213 209 206 204 204 204 204 205 204 203 202 203 204 206 208 211 215 220 223 225 228 231 233 235 237 238 242 246 252 256 257 257 257 260 266 272 279 284 288 291 292 295 296 297 298 298 298 297 296 295 293 293 293 291 286 282 280 280 280 281 282 282 283 284 284
183 185 191 196 200 205 212 215 216 219 220 219 218 218 216 215 215 212 210 210 211 210 210 209 207 205 203 203 203 203 204 205 208 211 215 219 223 226 228 230 232 234 236 239 242 244 248 251 253 254 254 257 262 270 278 285 289 292 294 295 295 296 296 297 297 296 296 294 293 291 290 289 290 289 286 284 283 281 281 282 283 283 283 283 282
188 192 196 198 202 208 214 217 219 221 220 219 218 218 215 212 210 209 209 210 210 210 210 209 208 206 205 204 205 207 209 212 216 219 222 225 228 231 232 233 234 236 239 243 248 252 254 255 254 255 259 267 276 282 287 291 293 294 295 295 295 295 295 295 295 295 294 292 290 288 286 285 284 284 283 282 282 282 281 282 282 282 282 282 282
202 205 205 205 208 211 214 216 218 220 220 217 215 212 211 209 207 207 208 209 208 206 206 206 206 206 207 211 215 218 220 223 225 227 228 230 232 234 235 237 239 243 247 250 253 255 255 255 258 263 270 277 282 286 289 291 292 293 293 293 293 293 292 291 291 291 291 289 287 285 283 281 279 279 278 278 279 280 280 279 279 280 280 280 281
209 208 207 207 210 214 216 216 216 215 214 212 209 207 206 206 205 206 206 206 205 204 204 207 210 213 217 222 226 228 230 232 232 233 234 235 236 238 240 243 247 251 254 255 256 257 258 260 265 270 275 278 281 284 286 288 288 289 289 290 290 290 288 287 287 287 287 287 286 284 282 281 280 278 277 278 280 282 282 281 281 280 280 280 280
215 212 209 207 207 210 211 210 208 206 206 205 204 204 204 203 203 204 206 207 209 212 215 218 222 225 227 230 231 231 233 233 234 235 237 238 240 242 246 250 253 255 256 257 257 258 260 264 267 269 272 275 279 281 282 283 284 285 285 285 285 284 283 282 282 283 284 284 284 284 284 284 283 282 281 281 282 282 283 283 283 282 281 280 280
216 211 207 202 200 199 200 199 199 199 199 201 202 204 205 206 208 211 214 218 221 224 226 228 230 230 230 230 231 232 234 234 234 234 236 238 242 245 248 251 253 255 256 256 256 257 259 262 264 267 270 272 275 276 277 279 279 279 278 277 275 274 274 274 275 276 277 278 279 280 281 282 282 281 281 280 280 281 282 282 282 281 280 280 279
206 203 201 199 197 197 199 201 203 203 204 206 208 210 213 216 220 222 225 228 230 231 233 234 234 232 231 231 233 236 237 237 237 236 238 241 245 249 251 253 254 254 254 254 254 255 257 259 262 265 268 270 271 272 273 274 274 274 273 272 270 269 269 269 269 270 270 271 272 274 275 277 278 279 280 280 280 280 280 279 279 280 279 279 279
200 200 202 203 206 209 210 211 213 214 215 217 219 220 222 225 227 229 231 232 233 235 235 235 236 236 236 237 238 239 239 239 240 241 243 246 250 252 253 254 254 253 253 254 256 257 258 260 263 266 267 269 270 271 271 272 273 273 273 272 272 272 272 271 271 271 271 271 271 272 273 275 276 277 279 279 279 278 277 277 277 278 278 277 277
207 209 211 212 215 218 219 220 222 223 224 225 226 227 228 229 229 230 232 233 234 236 237 238 239 240 240 241 242 242 242 243 245 247 248 250 251 252 252 252 253 253 255 256 258 260 262 264 266 268 269 269 270 271 273 273 273 273 273 274 274 274 274 274 274 274 273 272 272 272 272 273 274 275 276 277 276 275 275 275 275 275 275 275 275
216 216 216 217 219 221 221 223 225 225 225 226 226 227 228 230 231 232 234 235 237 239 241 241 242 242 242 242 243 244 245 247 248 250 251 251 251 251 251 252 252 254 256 257 259 262 264 266 267 269 270 271 271 273 274 274 274 274 274 273 272 272 272 272 271 271 269 269 269 270 271 271 272 272 272 273 273 273 273 273 273 273 274 274 274
221 220 221 222 222 221 220 220 221 222 224 225 226 228 230 232 234 236 238 239 241 242 242 241 242 242 243 244 246 248 250 251 251 251 251 251 251 252 252 252 254 255 257 258 261 263 265 266 268 269 271 272 273 273 273 274 274 273 272 271 270 269 269 269 269 268 267 266 267 267 268 269 270 270 271 270 271 271 272 272 271 272 272 272 273
226 224 223 221 219 217 217 217 218 222 225 227 230 232 234 235 237 238 239 240 241 241 242 242 243 244 246 248 250 251 252 252 252 251 251 251 251 251 252 253 255 257 259 260 262 264 265 267 268 269 271 272 273 273 273 273 272 271 270 269 268 268 268 268 269 268 267 267 266 266 267 268 269 270 271 271 270 270 271 271 270 270 271 272 274
222 220 219 219 218 218 218 220 222 225 228 230 233 235 236 238 239 239 240 241 242 242 243 245 246 247 249 250 250 250 250 251 251 252 251 251 252 252 253 254 256 258 260 262 263 264 266 267 269 270 271 272 272 273 273 272 271 271 269 268 267 267 267 268 268 268 268 267 266 265 266 267 268 269 269 270 270 269 268 268 268 269 269 271 273
220 220 220 222 223 223 225 227 229 231 233 235 236 238 238 239 240 241 242 243 243 244 245 246 246 246 247 246 247 248 249 250 252 252 252 252 253 253 254 256 258 260 262 263 264 266 268 269 270 271 271 272 272 272 271 271 270 269 268 266 266 266 266 266 267 267 267 266 265 265 265 265 266 267 267 268 268 267 267 266 266 267 268 270 272
222 223 225 228 230 232 235 237 238 240 241 242 242 242 243 243 243 243 243 243 243 243 243 243 243 244 244 245 247 248 249 251 252 253 253 254 256 257 258 260 262 264 265 266 267 269 269 270 271 271 272 272 272 271 269 269 268 267 266 266 266 266 266 266 266 266 266 265 264 264 264 264 265 265 265 265 266 266 267 267 266 267 269 270 272